Skip Page Navigation
NASA JPL Caltech
NASA Logo - Jet Propulsion Laboratory + View the NASA Portal
+ Center for Near-Earth Object Studies
JPL Home Earth Solar System Stars & Galaxies Technology
JPL Solar System Dynamics
BODIES ORBITS EPHEMERIDES TOOLS PHYSICAL DATA DISCOVERY FAQ SITE MAP
JPL Small-Body Database Browser
Search: [ help ]  
82 Alkmene (A864 WA)
Classification: Main-belt Asteroid          SPK-ID: 2000082
Ephemeris | Orbit Diagram | Orbital Elements | Mission Design | Physical Parameters | Discovery Circumstances | Close-Approach Data ]

[ show orbit diagram ]
Orbital Elements at Epoch 2459396.5 (2021-Jul-01.0) TDB
Reference: JPL 119 (heliocentric ecliptic J2000)
 Element Value Uncertainty (1-sigma)   Units 
e .2204184622451233 1.6045e-08  
a 2.763947542543965 3.8698e-09 au
q 2.154722475490237 4.549e-08 au
i 2.826156924673341 8.561e-07 deg
node 25.4402794432722 6.2341e-06 deg
peri 111.0801965508052 7.2169e-06 deg
M 346.6566225834033 6.3051e-06 deg
tp 2459458.709454142037
(2021-Sep-01.20945414)
2.9484e-05 TDB
period 1678.390919474233
4.60
3.5249e-06
9.651e-09
d
yr
n .2144911509130258 4.5046e-10 deg/d
Q 3.373172609597693 4.7228e-09 au
  Orbit Determination Parameters
   # obs. used (total)      3572  
   data-arc span      57125 days (156.40 yr)  
   first obs. used      1864-12-05  
   last obs. used      2021-05-01  
   planetary ephem.      DE441  
   SB-pert. ephem.      SB441-N16  
   condition code      0  
   norm. resid. RMS      .46226  
   source      ORB  
   producer      Otto Matic  
   solution date      2021-Jul-08 10:30:44  

Additional Information
 Earth MOID = 1.17104 au 
 Jupiter MOID = 1.66902 au 
 T_jup = 3.303 
[ show covariance matrix ]

Ephemeris | Orbit Diagram | Orbital Elements | Mission Design | Physical Parameters | Discovery Circumstances | Close-Approach Data ]

Physical Parameter Table
Parameter Symbol Value Units Sigma Reference Notes
absolute magnitude H 8.28   n/a E2021B10 IRAS observations used: 12
magnitude slope G 0.28   n/a PDS3 (MPC 17257) Fit
diameter diameter 57.621 km 0.714 urn:nasa:pds:neowise_diameters_albedos::2.0[mainbelt] (http://adsabs.harvard.edu/abs/2014ApJ...791..121M)  
rotation period rot_per 12.999 h n/a LCDB (Rev. 2020-October); Warner et al., 2009 Published Reference List:
[Harris, A.W.; Young, J.; Scaltriti, F.; Zappala, V. (1984) Icarus 57, 251-258.]
[Behrend, R. (2005) Observatoire de Geneve web site, http://obswww.unige.ch/~behrend/page_cou.html]
[Behrend, R. (2006) Observatoire de Geneve web site, http://obswww.unige.ch/~behrend/page_cou.html]
[Durech, J. (2006) IAU 2006, poster paper.]
[Durech, J.; Kaasalainen, M.; Warner, B.D.; Fauerbach, M.; et al. (2009) Astron. Astrophys. 493, 291-297.]
[Hanus, J.; Durech, J.; Broz, M.; Warner, B.D.; et al. (2011) Astron. Astrophys. 530, A134.]
geometric albedo albedo 0.167   0.024 urn:nasa:pds:neowise_diameters_albedos::2.0[mainbelt] (http://adsabs.harvard.edu/abs/2012ApJ...759L...8M)  
B-V BV 0.814   0.014 EAR-A-5-DDR-UBV-MEAN-VALUES-V1.2 #obs=5; phase (min.=8.57, mean=15.80, max.=23.77) deg.
U-B UB 0.380   0.029 EAR-A-5-DDR-UBV-MEAN-VALUES-V1.2 #obs=5; phase (min.=8.57, mean=15.80, max.=23.77) deg.
Tholen spectral type spec_T S   n/a EAR-A-5-DDR-TAXONOMY-V4.0 used 7 color indices; used ground-based radiometric albedo
SMASSII spectral type spec_B Sq   n/a EAR-A-5-DDR-TAXONOMY-V4.0 based on a high-resolution spectrum by Xu et al. (1995) or Bus and Binzel (2002)

82 Alkmene (A864 WA)          Discovered 1864-Nov-27 by Luther, R. at Dusseldorf
Reference: DISCOVERY.DBLast Updated: 2003-08-29

[ show close-approach data ]
Alternate Designations
 A864 WA = 1952 BB = 1963 OA = 1973 GO 
Ephemeris | Orbit Diagram | Orbital Elements | Mission Design | Physical Parameters | Discovery Circumstances | Close-Approach Data ]
ABOUT SSD CREDITS/AWARDS PRIVACY/COPYRIGHT GLOSSARY LINKS
FirstGov 2021-Jul-24 15:37 UT
(server date/time)  
NASA Home Page
Site Manager:   Ryan S. Park
Webmaster  Alan B. Chamberlin